Location: Champs
(48.8539°N, 2.6040°E)
Time: 05:55:05
(UTC+00:00)

Cosmos 1821 Rocket - Pass Details

Date: 26 October 2021
Orbit: 944 x 1005 km, 82.9° (Epoch: 04 December)

Event Time Altitude Azimuth Distance (km) Brightness Sun altitude
Rises 04:31:28 0° 348° (NNW) 3,681 6.9 -19.6°
Reaches altitude 10° 04:34:01 10° 346° (NNW) 2,720 6.2 -19.2°
Maximum altitude 04:40:09 65° 266° (W) 1,047 3.9 -18.1°
Drops below altitude 10° 04:46:10 10° 186° (S) 2,667 6.2 -17.2°
Sets 04:48:39 0° 183° (S) 3,603 6.9 -16.8°
